Starlink 31107

operational
NORAD ID: 58684 Int'l Des: 2023-211 Owner: SPXS Country: US Constellation: starlink
LEOCIRCULAR

关于 Starlink 31107

正在加载描述...

实时位置

正在加载3D地球...

即将过境

高度历史

Altitude vs Time

uPlot chart will show altitude changes over time

两行轨道根数

1 58684U 23211T 25307.38653577 .00004148 00000-0 16017-3 0 9996
2 58684 43.0010 78.9596 0001525 282.0621 78.0060 15.27579458103142
Epoch: Nov 3, 2025 • Age: 31 hours

当前状态

高度 487.3 km
速度 7.62 km/s
星下点 -19.98°S, 9.73°W
发射日期 Dec 29, 2023
运行时间 1.8 years
类型 internet

技术详情

分类 Payload
质量 730.00 kg
干质量 700.00 kg
总质量 730.00 kg
长度 0.30 m
直径 4.10 m
跨度 29.00 m
形状 Box + pan
制造商 SPXS
平台类型 Starlink V2M
阶段状态 In Orbit
所有者/国家 SPXS/US

大型星座

Loading constellations...